Theta_e
298 298 298 298 298 297 297 297 296 296 296 295 295 295 295 294 294 294 293 293 293 293 292 292 292 291 291 290 290 290 289 289 289 288 288 288 288 288 287 287 287 287
298 298 298 297 297 297 296 296 296 296 296 295 295 295 294 294 294 293 293 293 293 292 292 292 291 291 290 290 289 289 289 288 288 288 288 288 287 287 287 287 287 286
298 297 297 297 297 297 296 296 296 296 295 295 295 294 294 294 293 293 293 293 292 292 292 291 291 290 290 289 289 288 288 288 288 288 287 287 287 287 287 287 286 286
297 297 297 297 296 296 296 296 296 296 295 295 295 294 294 294 293 293 293 293 292 292 291 291 290 289 289 289 288 288 288 288 287 287 287 287 287 287 286 286 286 286
297 297 296 296 296 296 296 296 296 296 295 295 295 294 294 294 294 294 293 293 292 292 291 290 290 289 289 288 288 288 287 287 287 287 287 287 287 286 286 286 286 286
297 296 296 296 296 296 296 296 296 295 295 295 295 294 294 294 294 294 293 293 292 292 291 290 289 289 288 288 288 287 287 287 287 287 287 287 287 286 286 286 286 285
296 296 296 296 296 296 296 296 295 295 295 295 294 294 294 294 294 294 294 293 292 291 290 289 289 288 288 288 287 287 287 287 287 287 287 286 286 286 286 286 285 285
296 296 296 295 295 295 295 295 295 295 295 295 294 294 294 294 294 294 293 293 292 291 290 289 288 288 288 288 288 287 287 287 287 287 286 286 286 286 286 285 285 285
296 296 296 295 295 295 295 295 295 295 295 294 294 294 294 294 294 294 293 292 291 290 289 288 288 288 288 288 287 287 287 287 287 287 286 286 286 286 286 285 285 285
296 296 295 295 295 295 295 295 294 294 294 294 294 294 294 293 293 293 292 292 291 290 289 288 288 288 288 287 287 287 287 287 287 287 287 286 286 286 286 285 285 284
296 295 295 295 295 295 294 294 294 294 294 294 294 293 293 293 293 292 292 291 290 289 288 288 288 288 287 287 287 287 287 287 287 287 287 287 286 286 285 285 284 284
296 295 295 295 295 294 294 294 294 294 294 294 293 293 293 293 292 291 291 291 290 289 288 288 288 288 287 287 287 287 287 287 287 287 287 287 286 286 285 285 284 284
295 295 295 294 294 294 293 293 293 293 293 293 293 293 292 292 291 291 291 290 289 289 288 288 288 288 287 287 287 287 287 287 287 287 287 287 286 286 285 285 284 283
295 295 294 294 294 293 293 293 293 293 293 292 292 292 292 291 290 290 290 290 289 289 288 288 288 287 287 287 287 287 287 287 287 287 287 287 286 286 285 284 284 283
295 294 294 293 293 292 292 292 292 292 292 292 292 291 291 290 290 290 290 289 289 289 288 288 288 287 287 287 287 287 287 287 287 287 287 287 286 286 285 284 283 283
294 293 293 293 292 292 292 292 291 291 291 291 291 291 291 290 290 290 290 289 289 288 288 288 288 287 287 287 287 287 287 287 287 287 287 287 286 286 285 284 283 282
293 293 293 292 292 292 291 291 291 291 291 291 291 291 290 290 290 290 290 289 289 288 288 288 288 287 287 287 287 287 287 287 287 287 287 287 286 285 284 283 282 282
293 293 292 292 292 291 291 291 290 290 290 291 291 291 290 290 290 290 289 289 289 288 288 288 287 287 287 287 287 287 287 287 287 287 287 286 286 285 284 283 282 282
293 292 292 292 292 291 291 290 290 290 290 290 291 290 290 290 290 289 289 289 289 288 288 288 287 287 287 287 287 287 287 287 287 287 287 286 286 285 284 283 282 282
292 292 292 292 291 291 290 290 290 290 290 290 290 290 290 290 289 289 289 289 289 288 288 288 287 287 287 287 287 287 287 287 287 287 287 286 286 285 284 283 282 281
292 292 291 291 291 290 290 289 289 289 289 289 290 290 290 289 289 289 289 289 289 288 288 288 287 287 287 287 287 287 287 287 287 287 286 286 286 285 285 283 282 281
292 292 291 291 290 290 290 289 289 289 289 289 289 290 289 289 289 289 289 289 288 288 288 288 287 287 287 287 287 287 287 287 287 286 286 286 285 285 285 284 283 281
292 292 291 291 290 290 290 289 289 289 289 289 289 289 289 289 289 289 289 289 288 288 288 288 287 287 287 287 287 287 287 287 286 286 286 286 285 285 285 284 283 282
293 292 292 291 291 290 290 290 289 289 289 289 289 289 289 290 289 289 289 288 288 288 288 287 287 287 287 287 287 286 287 287 286 286 286 286 285 285 285 284 284 282
293 292 292 291 291 291 290 289 289 289 289 288 288 289 289 289 289 289 289 288 288 288 288 287 287 287 287 287 286 286 287 287 286 286 286 286 285 285 285 284 284 283
293 293 292 292 292 291 290 290 289 289 288 288 288 288 289 289 289 289 289 288 288 288 288 288 287 287 287 287 286 286 286 286 286 286 286 286 285 285 285 284 284 283
Wind_Speed
21 19 18 17 16 15 15 14 13 12 10 9 8 7 6 4 4 3 3 4 4 5 5 6 6 7 7 7 8 8 8 8 9 9 9 10 10 10 11 11 11 11
22 20 19 18 18 17 15 14 12 11 9 9 8 6 6 4 4 3 3 3 4 5 5 6 6 6 7 7 7 7 8 8 8 8 9 10 10 10 10 10 10 11
23 21 20 19 18 17 16 15 13 11 9 9 8 7 5 5 4 3 3 3 3 4 5 6 6 6 6 7 7 7 8 8 8 8 9 9 9 10 10 10 11 11
23 22 20 19 18 17 16 15 13 12 10 9 8 7 6 5 4 3 2 3 3 4 5 6 6 6 6 7 7 7 8 8 8 9 9 9 9 10 10 10 11 11
24 23 22 21 19 17 16 14 13 12 11 10 9 8 6 5 3 2 2 3 3 5 5 6 6 6 6 6 7 7 7 8 8 9 10 10 10 10 10 10 11 11
25 24 23 22 20 19 17 15 14 13 12 11 9 8 6 4 2 1 2 3 3 5 5 5 6 6 6 6 7 7 8 8 9 10 10 11 10 10 11 11 11 12
26 26 25 23 22 20 18 17 16 15 13 12 10 8 7 5 2 1 1 3 4 5 5 5 5 6 6 6 7 8 9 9 10 10 10 11 10 11 11 11 12 13
27 27 26 25 23 22 20 19 18 16 14 13 11 9 8 6 5 3 3 3 4 5 5 5 6 6 6 7 8 8 9 9 10 10 10 10 10 11 12 12 13 13
29 28 27 26 25 24 22 21 19 17 16 14 12 11 10 8 7 5 5 5 6 6 6 6 6 7 7 8 8 8 8 9 9 10 10 10 11 12 12 13 13 14
31 30 29 28 27 25 24 22 21 19 17 15 14 14 12 10 8 7 7 7 7 7 6 6 7 7 7 8 8 8 9 9 10 10 11 11 11 12 13 13 13 14
33 32 31 30 28 27 26 24 22 20 18 17 16 16 14 12 11 10 9 9 8 8 7 7 7 7 8 8 8 9 9 9 10 11 11 12 12 13 13 13 14 14
35 34 33 32 30 29 27 25 23 21 20 19 18 17 15 14 13 12 11 10 9 8 8 8 7 8 9 9 9 9 9 10 11 11 12 12 12 13 14 14 15 15
37 36 34 33 32 30 29 27 25 23 22 21 20 18 16 16 15 13 12 11 10 9 9 8 8 9 9 10 10 10 10 11 12 12 12 12 13 14 14 15 15 16
38 37 35 34 32 32 30 28 26 25 24 22 21 19 17 16 15 14 12 11 10 10 10 9 9 9 10 11 11 11 11 12 13 13 13 13 13 14 15 16 17 17
39 38 36 35 34 33 32 30 28 27 25 23 21 20 19 18 16 15 14 12 12 11 10 10 9 10 11 11 11 11 12 13 13 14 14 14 14 14 15 16 17 18
40 39 38 37 36 35 33 32 30 29 26 24 22 21 20 19 18 17 15 14 13 12 11 10 10 11 12 12 12 12 13 14 14 15 15 15 15 15 16 17 18 18
41 41 39 38 38 36 35 33 31 30 27 25 24 23 22 20 19 18 17 15 14 13 11 11 11 12 12 12 12 13 14 14 15 16 15 15 16 16 16 17 18 18
43 42 41 40 39 38 37 35 33 31 29 27 26 25 23 22 21 20 18 17 16 14 12 12 12 12 12 12 13 13 15 15 15 16 16 16 16 16 16 17 18 18
45 44 43 41 41 39 38 36 34 33 31 30 28 26 25 24 23 21 20 19 17 15 13 13 13 13 13 13 13 14 15 16 16 17 17 17 17 17 17 17 18 18
46 45 44 43 42 40 39 38 37 35 33 32 30 28 27 26 24 24 23 21 18 16 15 15 14 14 14 14 14 14 15 17 18 18 18 18 18 18 18 18 18 19
47 46 45 44 43 42 41 40 38 37 35 34 32 30 29 27 26 26 25 22 20 18 17 16 15 16 16 15 15 15 16 17 18 19 19 19 19 19 19 19 19 19
48 47 46 45 44 44 43 42 40 39 37 36 33 31 30 29 28 29 27 24 22 21 19 18 17 18 18 16 16 16 16 18 19 19 20 20 20 20 20 20 20 20
48 47 47 47 47 46 45 44 42 41 39 37 35 33 32 32 32 31 29 26 24 23 21 20 19 20 19 18 18 18 18 19 19 19 20 21 21 21 21 20 21 21
46 47 47 48 48 48 46 45 43 42 41 39 38 36 34 34 34 33 30 28 27 25 24 22 21 22 22 21 20 20 20 20 20 20 20 21 22 22 22 22 22 22
44 45 46 47 48 48 47 45 44 43 42 41 39 38 36 35 35 34 32 31 30 28 26 25 24 24 24 23 22 22 22 22 21 21 20 21 22 23 23 23 23 22
40 42 43 44 45 46 45 44 44 44 43 42 41 40 38 37 37 36 35 34 32 31 30 28 27 26 26 26 24 24 24 24 23 22 21 21 22 24 25 25 24 23
Wind_Direction
182 181 180 176 174 173 170 167 164 161 156 150 145 139 134 126 110 92 60 42 32 18 12 5 1 1 357 356 355 352 353 353 353 354 352 350 347 346 346 344 344 342
184 184 184 181 177 174 171 169 166 163 160 154 150 149 144 135 120 97 61 39 26 11 5 358 355 357 354 352 351 350 352 353 353 351 348 346 343 342 341 340 340 339
187 187 186 185 184 180 174 171 168 166 166 162 158 158 152 139 120 96 64 33 14 358 354 352 352 351 348 348 349 349 349 349 348 346 343 341 339 339 339 338 338 337
189 189 188 188 187 184 180 176 175 173 172 172 168 164 157 141 122 95 58 16 355 349 349 349 346 343 341 342 344 344 344 344 342 341 340 339 338 338 337 335 335 334
191 190 189 190 189 187 186 183 182 181 178 179 176 169 161 148 131 86 30 0 343 342 343 341 336 332 331 333 336 337 338 339 339 338 338 338 336 334 333 332 331 330
193 193 192 192 193 192 191 189 189 188 186 186 183 178 173 168 160 39 1 341 331 328 327 326 320 318 319 322 326 332 335 337 337 336 334 332 330 329 328 328 327 327
196 195 195 196 196 195 196 196 195 194 192 192 191 190 190 194 212 256 307 311 310 308 308 305 302 303 307 314 323 328 331 333 331 330 328 326 325 325 325 325 326 327
199 199 199 200 199 199 201 201 200 199 198 200 200 202 205 212 225 238 257 275 282 285 284 283 287 295 303 311 318 321 324 326 326 326 325 324 323 323 324 324 324 323
203 204 204 204 203 205 206 205 204 204 204 205 208 212 215 219 225 231 241 254 261 264 265 271 283 292 299 304 309 312 318 323 324 325 325 324 323 322 321 320 319 317
206 208 208 207 208 210 210 208 208 208 209 211 214 219 221 223 228 232 237 245 250 252 257 267 279 287 293 298 303 310 318 322 324 324 324 323 321 318 316 314 312 311
209 211 211 211 212 213 213 212 211 212 214 217 218 222 224 226 229 231 234 241 246 249 255 265 276 284 291 296 302 307 314 318 321 322 321 319 318 314 312 309 307 306
212 212 213 213 215 215 215 215 215 216 219 221 222 224 226 228 228 229 233 240 244 249 255 265 276 284 289 293 298 303 308 314 317 317 317 316 314 311 307 305 303 302
214 215 215 216 217 217 217 217 218 220 222 223 224 225 228 228 227 228 233 239 243 249 257 265 273 280 286 290 294 300 306 311 313 312 313 312 310 308 304 301 299 298
217 217 216 217 219 219 219 219 220 222 223 223 224 226 229 228 227 231 236 239 244 250 256 264 272 278 284 288 292 299 304 307 309 309 309 309 306 304 301 297 296 294
218 218 218 219 220 220 220 221 222 223 224 224 225 228 228 227 229 234 237 240 245 251 256 263 271 276 281 285 291 298 302 305 306 306 306 306 304 301 297 294 292 290
219 220 219 220 221 222 223 223 224 224 224 224 227 228 228 228 231 234 237 240 244 247 253 260 268 273 278 284 291 297 301 303 304 304 305 304 301 298 293 290 288 286
221 221 221 221 222 224 224 224 224 225 225 226 228 229 228 230 232 233 236 241 243 245 250 257 265 271 276 283 289 296 299 301 302 303 304 303 300 296 291 287 285 284
222 222 223 223 224 225 226 225 225 226 227 229 230 230 231 232 231 233 236 240 242 245 249 256 263 269 275 282 289 294 297 298 301 302 303 303 300 296 292 288 286 285
224 224 225 225 226 227 227 226 226 228 229 231 232 232 233 232 231 233 237 239 242 245 249 255 262 268 273 279 285 291 295 297 300 301 302 303 301 298 295 291 289 288
226 226 227 227 227 228 228 227 228 229 230 231 232 233 233 231 232 236 239 240 241 244 248 254 260 265 270 275 281 286 291 295 299 300 302 304 304 303 300 296 294 292
229 229 229 229 229 229 229 229 230 231 231 231 233 235 234 233 236 240 240 239 240 244 248 253 258 262 266 271 276 280 286 292 297 299 302 305 306 306 304 300 297 295
232 231 231 231 231 231 231 232 232 233 233 233 234 235 234 235 238 240 238 238 241 244 248 252 255 258 262 266 271 275 281 288 294 298 302 306 307 307 306 302 298 296
236 235 234 234 234 234 234 234 235 235 235 235 235 236 236 239 241 240 238 240 242 244 247 251 254 257 259 262 266 271 276 283 290 295 301 306 307 306 305 303 299 296
241 240 239 239 238 238 238 237 237 238 238 238 238 239 241 244 243 241 240 242 243 244 247 250 252 255 258 260 262 267 273 279 284 290 298 305 307 305 304 301 298 295
246 245 244 243 244 244 242 241 241 242 242 241 241 242 244 244 243 241 242 243 244 245 247 249 252 255 257 259 260 263 269 274 277 284 294 302 304 304 303 300 298 295
250 250 249 249 249 249 247 246 245 245 244 243 244 244 244 243 243 243 244 245 245 246 248 250 253 255 257 258 258 261 266 270 272 279 289 297 300 302 302 300 298 295